Regional Weather Roundup
Issued by NWS

Home | Current Version | Previous Version | Text Only | Print | Product List | Glossary Off
Versions: 1 2 3 4 5 6 7 8 9 10 11 12 13 14 15 16 17 18 19 20 21 22 23 24 25 26 27 28 29 30 31 32 33 34 35 36 37 38 39 40 41 42 43 44 45 46 47 48 49 50

000
ASUS43 KLOT 040608
RWRIL

ILLINOIS REGIONAL WEATHER ROUNDUP
NATIONAL WEATHER SERVICE CHICAGO/ROMEOVILLE IL
1200 AM CST SUN DEC 04 2016

NOTE: "FAIR" INDICATES FEW OR NO CLOUDS BELOW 12,000 FEET WITH NO
SIGNIFICANT WEATHER AND/OR OBSTRUCTIONS TO VISIBILITY.

* THESE STATIONS ARE NOT UNDER NWS QUALITY CONTROL. THEY ALSO MAY NOT
  REPORT WEATHER SUCH AS PRECIPITATION OR FOG.

ILZ001-002-007-009-015-016-024-040700-
NORTHWEST ILLINOIS

CITY           SKY/WX    TMP DP  RH WIND       PRES   REMARKS
MOLINE         CLOUDY    35  27  72 SE9       30.22F WCI  28
6HR MIN TEMP:  33; 6HR MAX TEMP:  35;

STERLING*      CLOUDY    33  28  81 VRB3      30.25F
SAVANNA*       CLOUDY    33  28  82 S6        30.25S WCI  28
$$

ILZ003-004-008-010-011-017-018-040700-
NORTH CENTRAL ILLINOIS

CITY           SKY/WX    TMP DP  RH WIND       PRES   REMARKS
ROCKFORD       CLOUDY    33  28  81 S8        30.27F WCI  26
6HR MIN TEMP:  32; 6HR MAX TEMP:  34;

FREEPORT*      CLOUDY    32  29  87 S6        30.26F WCI  26
ROCHELLE*      CLOUDY    32  29  90 SE7       30.26F WCI  25
DE KALB*       CLOUDY    31  28  88 S6        30.26F WCI  26
$$

ILZ005-006-012>014-019>023-040700-
NORTHEAST ILLINOIS

CITY           SKY/WX    TMP DP  RH WIND       PRES   REMARKS
CHICAGO-OHARE  CLOUDY    31  24  75 SW5       30.27S WCI  26
6HR MIN TEMP:  29; 6HR MAX TEMP:  32;

CHICAGO-MIDWAY CLOUDY    32  24  72 SW6       30.28S WCI  26
6HR MIN TEMP:  31; 6HR MAX TEMP:  33;

AURORA         CLOUDY    32  27  81 S6        30.27S WCI  26
6HR MIN TEMP:  31; 6HR MAX TEMP:  33;

LANSING*       CLOUDY    30  28  93 SW3       30.28S
JOLIET*        CLOUDY    32  28  86 CALM      30.28F
WAUKEGAN       CLOUDY    29  24  82 CALM      30.26S
6HR MIN TEMP:  29; 6HR MAX TEMP:  32;

DUPAGE AIRPORT CLOUDY    32  25  75 S6        30.26F WCI  26
6HR MIN TEMP:  30; 6HR MAX TEMP:  33;

KANKAKEE*      CLOUDY    31  28  88 CALM      30.28F
WHEELING       CLOUDY    31  24  75 S5        30.29S WCI  26
6HR MIN TEMP:  29; 6HR MAX TEMP:  32;

MORRIS*        CLOUDY    31  28  86 CALM      30.26F
ROMEOVILLE*    CLOUDY    30  29  96 CALM      30.28S
NORTHERLY ISL    N/A     33  25  72 S6          N/A  WCI  28
$$

LMZ740>746-040700-
SOUTHERN LAKE MICHIGAN

STATION/POSITION SKY/WX   TEMP    WIND        PRES    VSBY  WAVE
                          AIR SEA DIR/SP/G                  HT/PER
                          (F)     (DEG/KT/KT) (MB)    (MI)  (FT/S)
SOUTHERN BUOY              35 48  280/  2/  8 1025.1S         1
HARRISON CRIB              35     190/  6/  7   N/A
BURNHAM HARBOR             33     220/  6/  7   N/A
CALUMET HARBOR             32     230/  3/  5 1024.5F
BURNS HARBOR               33     200/  8/ 10 1025.4F
MICHIGAN CITY              33     160/  6/  8   N/A
$$

ILZ025>027-034>036-040-047-049-050-058-095>099-040700-
WEST-CENTRAL ILLINOIS

CITY           SKY/WX    TMP DP  RH WIND       PRES   REMARKS
QUINCY         CLOUDY    38  33  82 SE12      30.17F WCI  30
GALESBURG*     CLOUDY    33  29  86 E8        30.21F WCI  26
MACOMB*        CLOUDY    34  32  90 SE10      30.22F WCI  26
JACKSONVILLE*  CLOUDY    36  32  85 SE12      30.21F WCI  28
PITTSFIELD*    CLOUDY    38  35  89 E6        30.20F WCI  33
$$

ILZ028>032-037-038-041>044-048-051>054-059>061-040700-
CENTRAL ILLINOIS

CITY           SKY/WX    TMP DP  RH WIND       PRES   REMARKS
PONTIAC        CLOUDY    32  31  95 SE5       30.27F WCI  27
BLOOMINGTON    CLOUDY    31  28  89 E7        30.25F WCI  24
DECATUR        CLOUDY   N/A N/A N/A E6        30.26F
PEORIA         CLOUDY    33  28  81 E6        30.24F WCI  28
6HR MIN TEMP:  33; 6HR MAX TEMP:  34;

LACON*         CLOUDY    32  28  83 SE5       30.25F WCI  27
LINCOLN*       CLOUDY    34  31  88 E5        30.24F WCI  30
SPRINGFIELD    CLOUDY    36  31  82 E13       30.23F WCI  27
6HR MIN TEMP:  36; 6HR MAX TEMP:  38;

TAYLORVILLE    CLOUDY    35  31  88 E7        30.25F WCI  29
6HR MIN TEMP:  35; 6HR MAX TEMP:  36;

$$

ILZ033-039-045-046-055>057-062-063-040700-
EAST-CENTRAL ILLINOIS

CITY           SKY/WX    TMP DP  RH WIND       PRES   REMARKS
CHAMPAIGN      PTCLDY    32  28  85 E5        30.26F WCI  27
RANTOUL*       CLOUDY    33  31  91 E6        30.26F WCI  28
MATTOON        PTCLDY    34  27  75 E3        30.25F
PARIS*         CLOUDY    32  30  92 CALM      30.27F
$$

ILZ079-100>102-040700-
SOUTHWEST ILLINOIS

CITY           SKY/WX    TMP DP  RH WIND       PRES   REMARKS
ALTON          CLOUDY    38  34  87 E7        30.22F WCI  32
BELLEVILLE     CLOUDY    39  35  84 E5        30.20F
CAHOKIA*       CLOUDY    41  32  70 E6        30.22F
SPARTA*        CLOUDY    39  33  80 NE3       30.24S
$$

ILZ064>066-069>071-074>076-080>082-084>086-088>090-092>094-040700-
SOUTH-CENTRAL ILLINOIS

CITY           SKY/WX    TMP DP  RH WIND       PRES   REMARKS
CARBONDALE     CLOUDY    40  34  79 NE7       30.21F
6HR MIN TEMP:  40; 6HR MAX TEMP:  42;

CAIRO*         DRIZZLE   38  37  93 E6        30.19F WCI  34
EFFINGHAM*     CLOUDY    37  32  84 NE3       30.27S
MARION         CLOUDY    41  34  75 NE5       30.22F
CENTRALIA*     CLOUDY    39  34  81 NE5       30.24S
SALEM*         CLOUDY    39  32  75 NE5       30.24S
METROPOLIS*    LGT RAIN  38  37  92 CALM      30.21F
$$

ILZ067-068-072-073-078-083-087-091-040700-
SOUTHEAST ILLINOIS

CITY           SKY/WX    TMP DP  RH WIND       PRES   REMARKS
LAWRENCEVILLE  CLOUDY    37  30  75 NE8       30.26F WCI  31
FLORA*         CLOUDY    39  32  76 E6        30.25F WCI  35
FAIRFIELD*     CLOUDY    38  32  78 NE5       30.24S WCI  35
HARRISBURG*    CLOUDY    40  33  76 NE6       30.22F
ROBINSON*      CLOUDY    36  31  82 NE3       30.28S
CARMI*         CLOUDY    39  33  78 NE7       30.23S WCI  34
$$

ABBREVIATIONS USED IN REMARKS
   TC - TEMPERATURE IN CELSIUS
  WCI - WIND CHILL INDEX
   HX - HEAT INDEX
  VSB - VISIBILITY
$$





USA.gov is the U.S. government's official web portal to all federal, state and local government web resources and services.